| time (UTC) | temp C | wind direction | speed KPH | gust KPH | rain 1hr cm | rain 24hr cm | rain mn cm | humidity % | barometer mb |
| 20260506191601 | 18 | 360 | 6.4 | 22.5 | 0.00 | 0.13 | 0.13 | 80 | 1001.6 |
| 20260506184553 | 17 | 332 | 8.0 | 22.5 | 0.00 | 0.13 | 0.13 | 81 | 1001.8 |
| 20260506183100 | 17 | 360 | 3.2 | 20.9 | 0.00 | 0.13 | 0.13 | 82 | 1002.0 |
| 20260506181555 | 17 | 346 | 4.8 | 24.1 | 0.00 | 0.13 | 0.13 | 82 | 1002.1 |
| 20260506180051 | 17 | 300 | 4.8 | 35.4 | 0.00 | 0.13 | 0.13 | 82 | 1002.2 |
| 20260506174517 | 17 | 304 | 9.7 | 27.4 | 0.00 | 0.13 | 0.13 | 81 | 1002.3 |
| 20260506173017 | 17 | 321 | 11.3 | 22.5 | 0.00 | 0.13 | 0.13 | 82 | 1002.4 |
| 20260506171514 | 17 | 302 | 9.7 | 22.5 | 0.03 | 0.13 | 0.13 | 83 | 1002.5 |
| 20260506170015 | 17 | 327 | 16.1 | 24.1 | 0.05 | 0.13 | 0.13 | 83 | 1002.5 |
| 20260506164532 | 17 | 319 | 12.9 | 22.5 | 0.10 | 0.13 | 0.13 | 84 | 1002.4 |
| 20260506163013 | 17 | 355 | 8.0 | 14.5 | 0.10 | 0.13 | 0.13 | 85 | 1002.6 |
| 20260506161505 | 17 | 321 | 4.8 | 16.1 | 0.10 | 0.10 | 0.10 | 84 | 1003.3 |
| 20260506160002 | 17 | 14 | 1.6 | 19.3 | 0.08 | 0.08 | 0.08 | 81 | 1003.6 |
| 20260506154600 | 17 | 331 | 6.4 | 16.1 | 0.03 | 0.03 | 0.03 | 79 | 1003.7 |
| 20260506153057 | 17 | 355 | 11.3 | 20.9 | 0.03 | 0.03 | 0.03 | 77 | 1003.7 |
| 20260506151556 | 18 | 319 | 4.8 | 19.3 | 0.00 | 0.00 | 0.00 | 74 | 1003.5 |
| 20260506144552 | 19 | 328 | 14.5 | 24.1 | 0.00 | 0.00 | 0.00 | 71 | 1003.5 |
| 20260506143053 | 19 | 38 | 12.9 | 27.4 | 0.00 | 0.00 | 0.00 | 69 | 1003.6 |
| 20260506141550 | 20 | 342 | 11.3 | 24.1 | 0.00 | 0.00 | 0.00 | 67 | 1003.6 |
| 20260506140049 | 20 | 336 | 6.4 | 24.1 | 0.00 | 0.00 | 0.00 | 67 | 1003.6 |
| 20260506134544 | 19 | 312 | 8.0 | 22.5 | 0.00 | 0.00 | 0.00 | 68 | 1003.4 |
| 20260506133052 | 19 | 355 | 9.7 | 20.9 | 0.00 | 0.00 | 0.00 | 69 | 1003.6 |
| 20260506131537 | 19 | 297 | 6.4 | 27.4 | 0.00 | 0.00 | 0.00 | 69 | 1003.5 |
| 20260506130035 | 18 | 313 | 14.5 | 27.4 | 0.00 | 0.00 | 0.00 | 69 | 1003.9 |
| 20260506124533 | 18 | 23 | 9.7 | 30.6 | 0.00 | 0.00 | 0.00 | 71 | 1003.7 |
| 20260506123031 | 18 | 302 | 8.0 | 25.7 | 0.00 | 0.00 | 0.00 | 72 | 1003.7 |
| 20260506121527 | 18 | 323 | 9.7 | 19.3 | 0.00 | 0.00 | 0.00 | 72 | 1003.6 |
| 20260506120046 | 18 | 319 | 11.3 | 20.9 | 0.00 | 0.00 | 0.00 | 73 | 1003.7 |
| 20260506114621 | 17 | 302 | 12.9 | 27.4 | 0.00 | 0.00 | 0.00 | 75 | 1003.6 |
| 20260506113020 | 17 | 306 | 11.3 | 27.4 | 0.00 | 0.00 | 0.00 | 75 | 1003.6 |
| 20260506111514 | 17 | 309 | 11.3 | 24.1 | 0.00 | 0.00 | 0.00 | 76 | 1003.6 |
| 20260506110013 | 17 | 290 | 9.7 | 22.5 | 0.00 | 0.00 | 0.00 | 77 | 1003.6 |
| 20260506104521 | 17 | 321 | 12.9 | 22.5 | 0.00 | 0.00 | 0.00 | 77 | 1003.6 |
| 20260506103028 | 17 | 282 | 9.7 | 20.9 | 0.00 | 0.00 | 0.00 | 77 | 1003.5 |
| 20260506101506 | 17 | 298 | 9.7 | 20.9 | 0.00 | 0.00 | 0.00 | 78 | 1003.5 |
| 20260506100005 | 17 | 315 | 8.0 | 17.7 | 0.00 | 0.00 | 0.00 | 77 | 1003.6 |
| 20260506094502 | 17 | 300 | 8.0 | 20.9 | 0.00 | 0.00 | 0.00 | 77 | 1003.6 |
| 20260506093000 | 17 | 313 | 9.7 | 17.7 | 0.00 | 0.00 | 0.00 | 76 | 1003.5 |
| 20260506091607 | 17 | 312 | 9.7 | 20.9 | 0.00 | 0.00 | 0.00 | 76 | 1003.3 |
| 20260506090104 | 17 | 339 | 8.0 | 19.3 | 0.00 | 0.00 | 0.00 | 75 | 1003.5 |
| 20260506084621 | 18 | 282 | 6.4 | 19.3 | 0.00 | 0.00 | 0.00 | 75 | 1003.6 |
| 20260506083053 | 18 | 295 | 9.7 | 22.5 | 0.00 | 0.00 | 0.00 | 75 | 1003.5 |
| 20260506081558 | 18 | 282 | 8.0 | 19.3 | 0.00 | 0.00 | 0.00 | 75 | 1003.6 |
| 20260506073020 | 18 | 315 | 6.4 | 14.5 | 0.00 | 0.00 | 0.00 | 75 | 1003.4 |
| 20260506071519 | 18 | 9 | 3.2 | 12.9 | 0.00 | 0.00 | 0.00 | 75 | 1003.4 |
| 20260506061541 | 18 | 308 | 4.8 | 17.7 | 0.00 | 0.00 | 0.00 | 72 | 1003.9 |
| 20260506044537 | 19 | 266 | 9.7 | 17.7 | 0.00 | 0.00 | 0.00 | 68 | 1004.7 |
| 20260506043029 | 19 | 336 | 8.0 | 19.3 | 0.00 | 0.00 | 0.00 | 67 | 1004.7 |
| 20260506041530 | 20 | 275 | 6.4 | 17.7 | 0.00 | 0.00 | 0.00 | 66 | 1004.6 |
| 20260506040033 | 20 | 307 | 9.7 | 19.3 | 0.00 | 0.00 | 0.00 | 65 | 1004.5 |
| 20260506034526 | 20 | 334 | 6.4 | 19.3 | 0.00 | 0.00 | 0.00 | 65 | 1004.5 |
| 20260506033023 | 20 | 295 | 11.3 | 19.3 | 0.00 | 0.00 | 0.00 | 64 | 1004.3 |
| 20260506031521 | 20 | 330 | 8.0 | 20.9 | 0.00 | 0.00 | 0.00 | 63 | 1004.5 |
| 20260506030021 | 20 | 290 | 8.0 | 20.9 | 0.00 | 0.00 | 0.00 | 62 | 1004.4 |
| 20260506024520 | 20 | 291 | 4.8 | 19.3 | 0.00 | 0.00 | 0.00 | 61 | 1004.5 |
| 20260506023031 | 20 | 315 | 11.3 | 20.9 | 0.00 | 0.00 | 0.00 | 60 | 1004.6 |
| 20260506021530 | 21 | 306 | 4.8 | 16.1 | 0.00 | 0.00 | 0.00 | 60 | 1004.3 |
| 20260506020016 | 21 | 331 | 9.7 | 17.7 | 0.00 | 0.00 | 0.00 | 59 | 1004.2 |
| 20260506014518 | 21 | 302 | 4.8 | 19.3 | 0.00 | 0.00 | 0.00 | 57 | 1004.2 |
| 20260506013057 | 22 | 277 | 9.7 | 20.9 | 0.00 | 0.00 | 0.00 | 54 | 1004.0 |
| 20260506011555 | 22 | 265 | 8.0 | 22.5 | 0.00 | 0.00 | 0.00 | 51 | 1003.8 |
| 20260506010041 | 23 | 277 | 4.8 | 16.1 | 0.00 | 0.00 | 0.00 | 47 | 1003.7 |
| 20260506004542 | 23 | 315 | 8.0 | 17.7 | 0.00 | 0.00 | 0.00 | 45 | 1003.6 |
| 20260506003041 | 23 | 299 | 11.3 | 29.0 | 0.00 | 0.00 | 0.00 | 45 | 1003.5 |
| 20260506001541 | 23 | 300 | 9.7 | 17.7 | 0.00 | 0.00 | 0.00 | 44 | 1003.3 |
| 20260506000034 | 24 | 333 | 12.9 | 24.1 | 0.00 | 0.00 | 0.00 | 43 | 1003.1 |
| 20260505234534 | 25 | 323 | 8.0 | 22.5 | 0.00 | 0.00 | 0.00 | 42 | 1002.9 |
| 20260505233036 | 25 | 322 | 16.1 | 33.8 | 0.00 | 0.00 | 0.00 | 42 | 1002.8 |
| 20260505231548 | 25 | 329 | 9.7 | 27.4 | 0.00 | 0.00 | 0.00 | 43 | 1002.6 |
| 20260505230029 | 25 | 311 | 11.3 | 22.5 | 0.00 | 0.00 | 0.00 | 42 | 1002.5 |
| 20260505224528 | 25 | 329 | 12.9 | 29.0 | 0.00 | 0.00 | 0.00 | 41 | 1002.5 |
| 20260505223028 | 26 | 324 | 11.3 | 25.7 | 0.00 | 0.00 | 0.00 | 41 | 1002.8 |
| 20260505220025 | 26 | 345 | 17.7 | 32.2 | 0.00 | 0.00 | 0.00 | 36 | 1002.5 |
| 20260505214525 | 27 | 338 | 12.9 | 30.6 | 0.00 | 0.00 | 0.00 | 35 | 1002.5 |
| 20260505213034 | 27 | 308 | 19.3 | 38.6 | 0.00 | 0.00 | 0.00 | 34 | 1002.6 |
| 20260505211522 | 27 | 330 | 8.0 | 20.9 | 0.00 | 0.00 | 0.00 | 34 | 1002.4 |
| 20260505210018 | 27 | 341 | 17.7 | 32.2 | 0.00 | 0.00 | 0.00 | 34 | 1002.3 |
| 20260505204518 | 27 | 331 | 16.1 | 38.6 | 0.00 | 0.00 | 0.00 | 33 | 1002.3 |
| 20260505203027 | 27 | 316 | 11.3 | 33.8 | 0.00 | 0.00 | 0.00 | 32 | 1002.3 |
| 20260505201528 | 27 | 333 | 17.7 | 37.0 | 0.00 | 0.00 | 0.00 | 30 | 1002.4 |
| 20260505200014 | 27 | 13 | 16.1 | 35.4 | 0.00 | 0.00 | 0.00 | 30 | 1002.4 |
| 20260505194513 | 27 | 351 | 20.9 | 37.0 | 0.00 | 0.00 | 0.00 | 31 | 1002.5 |